Regional Weather Roundup
Issued by NWS

Home | Current Version | Previous Version | Text Only | Print | Product List | Glossary Off
Versions: 1 2 3 4 5 6 7 8 9 10 11 12 13 14 15 16 17 18 19 20 21 22 23 24 25 26 27 28 29 30 31 32 33 34 35 36 37 38 39 40 41 42 43 44 45 46 47 48 49 50

000
ASUS43 KTOP 031908
RWRKS

WEATHER ROUNDUP FOR KANSAS
NATIONAL WEATHER SERVICE GOODLAND KS
200 PM CDT FRI JUL 03 2015

NOTE:  "FAIR" INDICATES FEW OR NO CLOUDS BELOW 12,000 FEET WITH NO
SIGNIFICANT WEATHER AND/OR OBSTRUCTIONS TO VISIBILITY.

KSZ001>006-013>018-027>032-041>047-032000-
NORTHWEST KANSAS

CITY           SKY/WX    TMP DP  RH WIND       PRES   REMARKS
GOODLAND       MOSUNNY   83  54  36 CALM      30.08F
HAYS           MOSUNNY   81  61  50 N6        30.03F
HILL CITY      SUNNY     83  61  47 N9        30.04F
RUSSELL        MOSUNNY   82  61  48 N10       30.00F
$$

KSZ061>065-074>080-084>089-032000-
SOUTHWEST KANSAS

CITY           SKY/WX    TMP DP  RH WIND       PRES   REMARKS
DODGE CITY     SUNNY     85  58  39 NE9       30.03F
ELKHART          N/A     89  59  36 N3          N/A
GARDEN CITY    SUNNY     85  59  41 E3        30.04F
GREAT BEND     MOSUNNY   79  63  57 NE8       30.02F
LIBERAL        SUNNY     86  63  45 CALM      30.04F
PRATT          SUNNY     81  59  47 N9        30.02F
$$

KSZ066>073-081>083-090>101-032000-
SOUTHEAST KANSAS

CITY           SKY/WX    TMP DP  RH WIND       PRES   REMARKS
CHANUTE        PTSUNNY   78  70  76 NE13G24   29.92S
COFFEYVILLE    MOSUNNY   86  64  47 W12       29.89F
HUTCHINSON     MOSUNNY   84  63  49 NE9       29.98F
MEDICINE LODGE   N/A     89  60  37 NE16G23   29.96F
NEWTON         PTSUNNY   79  63  57 N14G21    30.00S
PARSONS        MOSUNNY   87  68  52 W9        29.91F
WICHITA INTL   MOSUNNY   84  64  50 N10       29.95F
WICHITA JABRA  PTSUNNY   80  66  62 NE13      29.96F
WICHITA MCCONL PTSUNNY   82  66  59 NW8       29.96F
WINFIELD       MOSUNNY   84  65  52 N10       29.96F
$$

KSZ007>012-019>026-033>040-048>060-102>105-032000-
NORTHEAST KANSAS

CITY           SKY/WX    TMP DP  RH WIND       PRES   REMARKS
CONCORDIA      PTSUNNY   77  65  66 NE9       30.01F
EMPORIA        LGT RAIN  73  66  78 N9        29.98S
LAWRENCE       MOSUNNY   79  62  56 NE9       29.97S
MANHATTAN      CLOUDY    78  65  63 NE10      29.98F
MARYSVILLE     MOSUNNY   79  63  57 NE8       29.99F
OLATHE IND     PTSUNNY   78  65  63 VRB5      29.97F
OLATHE EXE     MOSUNNY   78  63  59 N6        29.96S
SALINA         PTSUNNY   84  63  49 NE10      29.99F
TOPEKA BILLARD CLOUDY    77  65  66 NE8       29.97F
TOPEKA FORBES  CLOUDY    77  64  64 NE9       29.97F
$$



USA.gov is the U.S. government's official web portal to all federal, state and local government web resources and services.